STARLINK-34694, 66189

Orbit data source: Space-Track

STARLINK-34694, 66189 is a payload satellite owned by SpaceX/Seattle (US) in LEO that was launched on Sun, 26 Oct 2025 UTC via an FALCON 9 launch vehicle from the Air Force Eastern Test Range (AFETR). Payload-class satellites include a variety of spacecraft equipped with specific instruments for various scientific and technological missions. These include communications satellites like Starlink; space stations such as the ISS; scientific satellites like the Hubble; Earth observation satellites from companies like Planet Labs, Umbra, and HawkEye 360; GPS; miniature CubeSats for education and research; and military/defense satellites.

Loading next visibility...
Identifier
66189, 2025-243N
Orbit
LEO
Country
Flag of USUS
Related business
Manufacturer
SpaceX/Seattle
Mission
Operational Commercial Communications
Bus & Motor
STARLINK V2MO, Unknown motor
Mass
575 kg wet, ~530 kg dry
Launch date (UTC)
2025-10-26 (4 months ago)
Launch vehicle
FALCON 9
Launch site
Air Force Eastern Test Range (AFETR)
Object type
Payload
Rocket body
Debris
Shape & HBR
Box + 2 Pan, 17.7 m
Radar Cross Section
36.964 m²

Expand to show TLE details & history
Last TLE update: 9 hours ago

TLE from 9 hours ago
0 STARLINK-34694
1 66189U 25243N   26061.76684320  .00016627  00000-0  57220-3 0  9998
2 66189  53.1572 277.4249 0000948  90.4151 269.6959 15.30202030 19597
Epoch: 2026-03-02T18:24Z
TLE epoch observation values (Epoch: 2026-03-02T18:24:15.252Z)
Latitude
0.00003°
Longitude
-159.19417°
Altitude
476.112 km
Speed
7.629 km/s
True Right ascension
18h 29m 41s
True Declination
0° 00' 00"
Sunlit
Object was in daylight at epoch
Visualization orbit readout
Latitude
Unknown
Longitude
Unknown
Altitude
Unknown
Speed
Unknown
Apparent Right ascension
Unknown
Apparent Declination
Unknown
Sunlit
N/A
Visualization observer readout
Local Sidereal Time
07:11:06
Azimuth
Unknown
Elevation
Unknown
Doppler factor
Unknown
Orbital elements
Apogee altitude
476.116 km
Perigee altitude
474.816 km
Semi-major axis
6,853.603 km
Eccentricity
0.00009
Inclination
53.1572°
RAAN
277.4249°
Arg. of periapsis
90.4151°
True anomaly
269.68504°
Mean anomaly
269.6959°
Eccentric anomaly
269.69047°
Mean motion
3.82529 °/min
Orbital period
94.11 mins
BSTAR
0.0005722
Loading maneuver chart data...
Computing Atmospheric mass density...
Loading historical data...
Loading historical data...
Loading historical data...
Loading historical data...
Loading historical data...
Loading historical data...
Loading historical data...

Documentation

Showing up to 5 results
|